Regional Weather Roundup
Issued by NWS

Home | Current Version | Previous Version | Text Only | Print | Product List | Glossary Off
Versions: 1 2 3 4 5 6 7 8 9 10 11 12 13 14 15 16 17 18 19 20 21 22 23 24 25 26 27 28 29 30 31 32 33 34 35 36 37 38 39 40 41 42 43 44 45 46 47 48 49 50

573
ASUS45 KBOU 192107
RWRCO

WEATHER ROUNDUP FOR COLORADO
NATIONAL WEATHER SERVICE DENVER/BOULDER CO
300 PM MDT THU OCT 19 2017

NOTE: "FAIR" INDICATES FEW OR NO CLOUDS BELOW 12000 FEET WITH NO
SIGNIFICANT WEATHER AND/OR OBSTRUCTIONS TO VISIBILITY.

COZ001>005-013-030-031-192200-
...NORTHWEST COLORADO...

CITY           SKY/WX    TMP DP  RH WIND       PRES   REMARKS
CRAIG          FAIR      71  20  14 W10       30.01F
HAYDEN         FAIR      69  24  18 W14       30.04F
MEEKER         FAIR      70  23  17 SW12G20   30.02F
RABBIT EARS PA FAIR      52  21  30 W6        30.27F
STEAMBOAT SPGS FAIR      68  22  17 CALM      30.04F
WALDEN         NOT AVBL
$$

COZ006>008-011-192200-
...WEST CENTRAL VALLEYS...

CITY           SKY/WX    TMP DP  RH WIND       PRES   REMARKS
GRAND JUNCTION PTSUNNY   70  20  15 VRB5      29.98F
MONTROSE       FAIR      69  22  16 N7        30.03F
EAGLE          FAIR      67  21  17 W3        30.05F
RIFLE          FAIR      74  21  13 W16G24    29.99F
DELTA          FAIR      77  17  10 W5        29.99F
NUCLA          FAIR      72  19  14 NW10      30.07F
$$

COZ017>023-064>068-192200-
...SOUTHWEST COLORADO...

CITY           SKY/WX    TMP DP  RH WIND       PRES   REMARKS
DURANGO        PTSUNNY   69  23  17 S7        30.09F
CORTEZ         CLOUDY    66  26  22 W13       30.07F
PAGOSA SPRINGS FAIR      68  13  12 S7        30.15F
TELLURIDE      CLOUDY    59  21  22 SW6       30.22S
WOLF CREEK PAS FAIR      46  19  34 S10G20    30.42F
$$

COZ009-010-012-014-032>034-037-058>063-192200-
...CENTRAL COLORADO...

CITY           SKY/WX    TMP DP  RH WIND       PRES   REMARKS
ASPEN          PTSUNNY   67  21  17 N8        30.08F
BUENA VISTA    FAIR      66  12  12 SE6G12    30.11F
COPPER MTN     PTSUNNY   54  19  26 NW10      30.36F
BERTHOUD PASS  PTSUNNY   39  32  75 NE6       30.38F
COTTONWOOD PAS FAIR      63  12  14 SE6       30.23F
GUNNISON       FAIR      67  21  17 CALM      30.10F
KREMMLING      FAIR      73  14  10 W15G22    30.08F
LEADVILLE      FAIR      59  11  15 S17G24    30.19F
MONARCH PASS   FAIR      46  19  34 SW13      30.47F
SALIDA         FAIR      70  12  10 S10       30.15F
SUNLIGHT       FAIR      52  18  25 W7        30.32F
WILKERSON PASS FAIR      54   7  15 SW7       30.35F
$$

COZ069>075-192200-
...SAN LUIS VALLEY/SANGRE DE CRISTO MOUNTAINS...

CITY           SKY/WX    TMP DP  RH WIND       PRES   REMARKS
ALAMOSA        FAIR      67  14  13 E5        30.12F
DEL NORTE      FAIR      62  19  18 E6        30.16F
LA VETA PASS   FAIR      59  18  20 MISG      30.38F
SAGUACHE       FAIR      64  16  15 SE8       30.16F
$$

COZ035-036-038>040-192200-
...NORTHERN COLORADO FRONT RANGE...

CITY           SKY/WX    TMP DP  RH WIND       PRES   REMARKS
DENVER INTL AP PTSUNNY   74  29  19 NE9       29.94F
DMNS CITY PARK   N/A     74  21  13 N18       29.93F
AURORA         PTSUNNY   76  30  18 NE10      29.95F
FRONT RANGE AP PTSUNNY   75  28  17 N7        29.85F
ERIE MUNI ARPT FAIR      74  23  15 N6        29.98F
BOULDER MUN AP FAIR      72  27  18 N3        29.94F
CENTENNIAL     PTSUNNY   77  19  11 S15       29.95F
BROOMFIELD     PTSUNNY   73  25  16 NW10      29.97F
FORT COLLINS   FAIR      69  27  20 CALM      29.95F
LONGMONT       FAIR      73  27  18 CALM      29.96F
$$

COZ041-046-047-076>085-087-088-192200-
...PIKES PEAK/PALMER DIVIDE AND SOUTHERN FOOTHILLS...

CITY           SKY/WX    TMP DP  RH WIND       PRES   REMARKS
COLO. SPRINGS  PTSUNNY   72  22  15 S17       30.03F
A. F. ACADEMY  FAIR      70  20  15 S12       30.03F
SCHRIEVER AFB  FAIR      69  19  14 S13       30.04F
CHEYENNE MTN   FAIR      66  19  17 SE15G21   30.01F
ELLICOTT         N/A    N/A N/A N/A S13       30.03F
FALCON         FAIR      69  16  13 S15G25    30.08F
FORT CARSON    FAIR      72  21  15 SE17      30.00F
LIMON          FAIR      73  24  16 S17G23    30.00F
MONUMENT HILL  FAIR      68  19  15 S18G30    30.07F
CANON CITY     FAIR      77  23  13 SE6       29.98F
WALSENBURG     NOT AVBL
TRINIDAD       FAIR      76  15  10 S12       30.00F
$$

COZ042>045-048>051-090-091-192200-
...NORTHEAST COLORADO...

CITY           SKY/WX    TMP DP  RH WIND       PRES   REMARKS
GREELEY ARPT   FAIR      70  30  22 CALM      29.94F
AKRON          LGT RAIN  78  26  14 S14G23    29.94F
BURLINGTON     FAIR      80  40  23 S18G26    29.97F
WRAY           NOT AVBL
YUMA           NOT AVBL
STERLING       NOT AVBL
HOLYOKE        FAIR      86  32  14 S15G25    29.90F
FORT MORGAN    FAIR      76  29  18 NE6       29.91F
$$

COZ086-089-092>099-192200-
...SOUTHEAST COLORADO...

CITY           SKY/WX    TMP DP  RH WIND       PRES   REMARKS
PUEBLO         FAIR      76  26  15 SE9       29.94F
LA JUNTA       FAIR      77  39  25 SE12      29.94F
LAMAR          FAIR      78  41  26 SE14G22   29.93F
SPRINGFIELD      N/A     76  44  32 S17       29.97F
$$




USA.gov is the U.S. government's official web portal to all federal, state and local government web resources and services.